Weather History for Tillamook, OR

Change the Weather History Date:

Friday, March 1, 2013

  Actual Average (KMMV) Record (KMMV)
Temperature  
Mean Temperature 52 °F 44 °F  
Max Temperature 55 °F 53 °F 74 °F (1926)
Min Temperature 50 °F 35 °F 15 °F (1920)
Degree Days  
Heating Degree Days 12 21  
Month to date heating degree days 21  
Since 1 July heating degree days 3400  
Cooling Degree Days 0 0  
Month to date cooling degree days 0  
Year to date cooling degree days 0  
Growing Degree Days 2 (Base 50)    
Moisture  
Dew Point 52 °F    
Average Humidity 96    
Maximum Humidity 100    
Minimum Humidity 88    
Precipitation  
Precipitation 0.06 in 0.13 in 1.10 in (1972)
Month to date precipitation 0.13  
Year to date precipitation 10.67  
Sea Level Pressure  
Sea Level Pressure 30.41 in    
Wind  
Wind Speed 5 mph (South)    
Max Wind Speed 12 mph    
Max Gust Speed 23 mph    
Visibility 6 miles    
Events Rain    
T = Trace of Precipitation, MM = Missing Value Source: NWS Daily Summary

Daily Weather History Graph

Daily Weather History Graph

Search for Another Location

Airport:

Trip Planner

Search our weather history database for the weather conditions in past years. The results will help you decide how hot, cold, wet, or windy it might be!

Date:

Astronomy

Mar. 01, 2013 Rise Set
Actual Time 7:52 AM MST 7:02 PM MST
Civil Twilight 7:23 AM MST 7:32 PM MST
Nautical Twilight 6:49 AM MST 8:06 PM MST
Astronomical Twilight 6:14 AM MST 8:41 PM MST
Moon 11:59 PM MST (3/1) 9:28 AM MST (3/1)
Length of Visible Light 12h 09m
Length of Day
11h 09m
Waning Gibbous, 83% of the Moon is Illuminated
Mar 1
Waning Gibbous
Mar 4
Last Quarter
Mar 11
New
Mar 19
First Quarter
Mar 27
Full

Hourly Weather History & Observations

Time (MST) Temp. Dew Point Humidity Pressure Visibility Wind Dir Wind Speed Gust Speed Precip Events Conditions
12:15 AM 53.6 °F 53.6 °F 100% 30.43 in 5.0 mi SSW 5.8 mph - 0.01 in   Heavy Drizzle
12:35 AM 53.6 °F 53.6 °F 100% 30.43 in 4.0 mi South 10.4 mph - 0.03 in   Heavy Drizzle
1:15 AM 53.6 °F 53.6 °F 100% 30.44 in 4.0 mi SSW 4.6 mph - 0.01 in   Heavy Drizzle
1:35 AM 53.6 °F 53.6 °F 100% 30.43 in 5.0 mi South 8.1 mph - 0.03 in   Heavy Drizzle
2:15 AM 53.6 °F 53.6 °F 100% 30.44 in 5.0 mi South 9.2 mph - N/A   Drizzle
2:35 AM 53.6 °F 51.8 °F 94% 30.44 in 7.0 mi South 11.5 mph 18.4 mph 0.01 in   Drizzle
2:55 AM 53.6 °F 51.8 °F 94% 30.44 in 7.0 mi South 9.2 mph 18.4 mph 0.01 in Rain Rain
3:15 AM 53.6 °F 51.8 °F 94% 30.45 in 3.0 mi SSW 11.5 mph 23.0 mph N/A   Overcast
3:35 AM 51.8 °F 51.8 °F 100% 30.45 in 3.0 mi SSW 4.6 mph - N/A   Overcast
4:15 AM 51.8 °F 51.8 °F 100% 30.45 in 4.0 mi Calm Calm - N/A   Overcast
4:35 AM 51.8 °F 51.8 °F 100% 30.44 in 4.0 mi Calm Calm - N/A   Overcast
5:15 AM 51.8 °F 51.8 °F 100% 30.44 in 4.0 mi South 3.5 mph - N/A Rain Light Rain
5:35 AM 51.8 °F 51.8 °F 100% 30.44 in 4.0 mi SSE 3.5 mph - 0.01 in   Light Drizzle
5:55 AM 51.8 °F 51.8 °F 100% 30.44 in 7.0 mi South 4.6 mph - 0.01 in   Overcast
6:15 AM 51.8 °F 51.8 °F 100% 30.44 in 7.0 mi SE 4.6 mph - N/A   Overcast
6:35 AM 51.8 °F 51.8 °F 100% 30.43 in 5.0 mi SSE 6.9 mph - N/A   Overcast
6:55 AM 51.8 °F 50.0 °F 94% 30.43 in 10.0 mi South 9.2 mph - N/A   Overcast
7:15 AM 51.8 °F 50.0 °F 94% 30.44 in 10.0 mi South 6.9 mph - N/A   Overcast
7:35 AM 51.8 °F 50.0 °F 94% 30.44 in 10.0 mi Calm Calm - N/A   Overcast
8:15 AM 51.8 °F 50.0 °F 94% 30.45 in 10.0 mi Calm Calm - N/A   Overcast
8:35 AM 51.8 °F 50.0 °F 94% 30.45 in 10.0 mi Calm Calm - N/A   Overcast
8:55 AM 51.8 °F 50.0 °F 94% 30.44 in 10.0 mi Calm Calm - N/A   Overcast
9:15 AM 51.8 °F 51.8 °F 100% 30.45 in 10.0 mi ESE 3.5 mph - N/A   Overcast
9:35 AM 51.8 °F 51.8 °F 100% 30.45 in 5.0 mi SE 4.6 mph - N/A   Overcast
9:55 AM 51.8 °F 51.8 °F 100% 30.44 in 2.5 mi SE 6.9 mph - N/A   Overcast
10:15 AM 53.6 °F 51.8 °F 94% 30.44 in 4.0 mi SSE 6.9 mph - N/A   Overcast
10:35 AM 53.6 °F 51.8 °F 94% 30.45 in 10.0 mi South 3.5 mph - N/A   Overcast
10:55 AM 53.6 °F 51.8 °F 94% 30.44 in 3.0 mi South 3.5 mph - N/A   Light Drizzle
11:15 AM 53.6 °F 51.8 °F 94% 30.44 in 5.0 mi South 4.6 mph - N/A Rain Rain
11:35 AM 53.6 °F 51.8 °F 94% 30.44 in 2.5 mi SSE 3.5 mph - N/A   Drizzle
12:35 PM 55.4 °F 53.6 °F 94% 30.44 in 4.0 mi South 6.9 mph - N/A   Overcast
12:55 PM 55.4 °F 53.6 °F 94% 30.44 in 3.0 mi South 8.1 mph - N/A   Overcast
1:15 PM 55.4 °F 53.6 °F 94% 30.44 in 4.0 mi South 4.6 mph - N/A Rain Light Rain
1:35 PM 55.4 °F 53.6 °F 94% 30.43 in 3.0 mi South 3.5 mph - N/A   Light Drizzle
2:15 PM 55.4 °F 53.6 °F 94% 30.42 in 7.0 mi SSE 6.9 mph - N/A   Overcast
2:35 PM 55.4 °F 53.6 °F 94% 30.42 in 2.5 mi SSE 5.8 mph - N/A Rain Light Rain
2:55 PM 55.4 °F 53.6 °F 94% 30.41 in 4.0 mi South 4.6 mph - N/A   Overcast
3:15 PM 55.4 °F 53.6 °F 94% 30.41 in 10.0 mi Calm Calm - N/A   Overcast
3:35 PM 55.4 °F 53.6 °F 94% 30.40 in 4.0 mi South 5.8 mph - 0.01 in   Light Drizzle
3:55 PM 55.4 °F 53.6 °F 94% 30.40 in 3.0 mi SSW 5.8 mph - 0.01 in Rain Light Rain
4:15 PM 55.4 °F 53.6 °F 94% 30.39 in 10.0 mi Calm Calm - N/A   Overcast
4:35 PM 55.4 °F 53.6 °F 94% 30.39 in 10.0 mi Calm Calm - N/A   Overcast
4:55 PM 55.4 °F 53.6 °F 94% 30.39 in 10.0 mi Calm Calm - N/A   Overcast
5:15 PM 55.4 °F 51.8 °F 88% 30.39 in 10.0 mi Calm Calm - N/A   Overcast
5:35 PM 55.4 °F 51.8 °F 88% 30.38 in 7.0 mi SSW 3.5 mph - N/A   Overcast
5:55 PM 55.4 °F 51.8 °F 88% 30.38 in 7.0 mi SSW 4.6 mph - N/A   Overcast
6:15 PM 55.4 °F 51.8 °F 88% 30.38 in 5.0 mi Calm Calm - N/A   Overcast
6:35 PM 55.4 °F 53.6 °F 94% 30.37 in 7.0 mi NW 3.5 mph - N/A   Mostly Cloudy
6:55 PM 53.6 °F 51.8 °F 94% 30.36 in 7.0 mi Calm Calm - N/A   Scattered Clouds
7:15 PM 53.6 °F 51.8 °F 94% 30.36 in 7.0 mi SW 3.5 mph - N/A   Clear
7:35 PM 53.6 °F 51.8 °F 94% 30.36 in 7.0 mi South 3.5 mph - N/A   Clear
7:55 PM 51.8 °F 50.0 °F 94% 30.36 in 5.0 mi SW 4.6 mph - N/A   Clear
8:15 PM 51.8 °F 50.0 °F 94% 30.37 in 7.0 mi SSW 4.6 mph - N/A   Clear
8:35 PM 50.0 °F 50.0 °F 100% 30.37 in 7.0 mi Calm Calm - N/A   Mostly Cloudy
8:55 PM 51.8 °F 50.0 °F 94% 30.37 in 7.0 mi Calm Calm - N/A   Overcast
9:15 PM 50.0 °F 50.0 °F 100% 30.36 in 7.0 mi SE 5.8 mph - N/A   Overcast
9:35 PM 50.0 °F 50.0 °F 100% 30.37 in 5.0 mi Calm Calm - N/A   Overcast
9:55 PM 50.0 °F 50.0 °F 100% 30.37 in 5.0 mi Calm Calm - N/A   Overcast
10:15 PM 50.0 °F 50.0 °F 100% 30.36 in 5.0 mi SE 3.5 mph - N/A   Overcast
10:35 PM 50.0 °F 50.0 °F 100% 30.36 in 7.0 mi SE 3.5 mph - N/A   Overcast
10:55 PM 50.0 °F 50.0 °F 100% 30.36 in 7.0 mi SE 3.5 mph - N/A   Overcast
11:15 PM 50.0 °F 50.0 °F 100% 30.36 in 7.0 mi SE 3.5 mph - N/A   Overcast
11:35 PM 50.0 °F 50.0 °F 100% 30.35 in 7.0 mi SE 3.5 mph - N/A   Overcast
11:55 PM 50.0 °F 50.0 °F 100% 30.34 in 7.0 mi SE 3.5 mph - N/A   Overcast